Location: Aalen
(48.8330°N, 10.1000°E)
Time: 01:45:00
(UTC+02:00)

METEOR M2 - Pass Details

Date: 17 April 2024
Orbit: 817 x 827 km, 98.4° (Epoch: 19 May)

Event Time Altitude Azimuth Distance (km) Brightness Sun altitude
Rises 05:25:49 0° 30° (NNE) 3,364 ? -9.7°
Reaches altitude 10° 05:29:30 10° 56° (ENE) 2,423 ? -9.1°
Maximum altitude 05:32:07 14° 86° (E) 2,170 ? -8.8°
Drops below altitude 10° 05:34:43 10° 115° (ESE) 2,412 ? -8.4°
Sets 05:38:22 0° 141° (SE) 3,336 ? -7.8°
